Fairmont, MN

4:46 PM CDT on April 27, 2017 (GMT -0500)
Fairmont Municipal

Weather History for KFRM - January, 2013

Change the Weather History Date:

Wednesday, January 23, 2013

  Actual Average Record
Temperature  
Mean Temperature 10 °F -  
Max Temperature 21 °F 26 °F 55 °F (1981)
Min Temperature 0 °F 7 °F -22 °F (1963)
Degree Days  
Heating Degree Days 54    
Moisture  
Dew Point 2 °F    
Average Humidity 60    
Maximum Humidity 68    
Minimum Humidity 49    
Precipitation  
Precipitation 0.00 in - - ()
Sea Level Pressure  
Sea Level Pressure 30.26 in    
Wind  
Wind Speed 13 mph (WNW)    
Max Wind Speed 29 mph    
Max Gust Speed 37 mph    
Visibility 10 miles    
Events      
Averages and records for this station are not official NWS values.
T = Trace of Precipitation, MM = Missing Value Source: NWS Daily Summary

Daily Weather History Graph

Daily Weather History Graph

Search for Another Location

Airport or City:

Trip Planner

Search our weather history database for the weather conditions in past years. The results will help you decide how hot, cold, wet, or windy it might be!

Date:

Astronomy

Jan. 23, 2013 Rise Set
Actual Time 7:42 AM CST 5:17 PM CST
Civil Twilight 7:11 AM CST 5:48 PM CST
Nautical Twilight 6:36 AM CST 6:23 PM CST
Astronomical Twilight 6:02 AM CST 6:57 PM CST
Moon 2:26 PM CST (1/23) 4:56 AM CST (1/23)
Length of Visible Light 10h 36m
Length of Day
9h 34m
Waxing Gibbous, 89% of the Moon is Illuminated
Jan 23
Waxing Gibbous
Jan 26
Full
Feb 3
Last Quarter
Feb 10
New
Feb 17
First Quarter

Hourly Weather History & Observations

Time (CST) Temp. Windchill Dew Point Humidity Pressure Visibility Wind Dir Wind Speed Gust Speed Precip Events Conditions
12:15 AM 17.6 °F 7.3 °F 6.8 °F 63% 30.19 in 10.0 mi South 8.1 mph - N/A   Overcast
12:35 AM 17.6 °F 8.2 °F 6.8 °F 63% 30.18 in 10.0 mi South 6.9 mph - N/A   Overcast
12:55 AM 17.6 °F 7.3 °F 6.8 °F 63% 30.17 in 10.0 mi South 8.1 mph - N/A   Overcast
1:15 AM 17.6 °F 8.2 °F 6.8 °F 63% 30.17 in 10.0 mi South 6.9 mph - N/A   Overcast
1:35 AM 17.6 °F 7.3 °F 6.8 °F 63% 30.16 in 10.0 mi South 8.1 mph - N/A   Overcast
1:55 AM 17.6 °F 8.2 °F 6.8 °F 63% 30.16 in 10.0 mi South 6.9 mph - N/A   Overcast
2:15 AM 17.6 °F 7.3 °F 8.6 °F 68% 30.15 in 10.0 mi South 8.1 mph - N/A   Overcast
2:35 AM 17.6 °F 7.3 °F 8.6 °F 68% 30.15 in 10.0 mi South 8.1 mph - N/A   Overcast
2:55 AM 19.4 °F 10.4 °F 8.6 °F 63% 30.15 in 10.0 mi South 6.9 mph - N/A   Overcast
3:15 AM 19.4 °F 9.5 °F 8.6 °F 63% 30.14 in 10.0 mi South 8.1 mph - N/A   Overcast
3:35 AM 19.4 °F 8.6 °F 8.6 °F 63% 30.13 in 10.0 mi South 9.2 mph - N/A   Overcast
3:55 AM 19.4 °F 9.5 °F 8.6 °F 63% 30.12 in 10.0 mi South 8.1 mph - N/A   Overcast
4:15 AM 19.4 °F 10.4 °F 8.6 °F 63% 30.13 in 10.0 mi SSW 6.9 mph - N/A   Overcast
4:35 AM 19.4 °F 11.5 °F 8.6 °F 63% 30.12 in 10.0 mi SSW 5.8 mph - N/A   Overcast
4:55 AM 19.4 °F 11.5 °F 8.6 °F 63% 30.11 in 10.0 mi SSW 5.8 mph - N/A   Overcast
5:15 AM 19.4 °F 12.8 °F 10.4 °F 68% 30.12 in 10.0 mi SW 4.6 mph - N/A   Overcast
5:35 AM 19.4 °F 10.4 °F 10.4 °F 68% 30.13 in 10.0 mi WSW 6.9 mph - N/A   Overcast
5:55 AM 19.4 °F 12.8 °F 10.4 °F 68% 30.12 in 10.0 mi WSW 4.6 mph - N/A   Overcast
6:15 AM 21.2 °F 13.6 °F 10.4 °F 63% 30.11 in 10.0 mi West 5.8 mph - N/A   Overcast
6:35 AM 19.4 °F 10.4 °F 10.4 °F 68% 30.11 in 10.0 mi West 6.9 mph - N/A   Overcast
6:55 AM 19.4 °F 11.5 °F 10.4 °F 68% 30.12 in 10.0 mi West 5.8 mph - N/A   Overcast
7:15 AM 19.4 °F 11.5 °F 10.4 °F 68% 30.12 in 10.0 mi West 5.8 mph - N/A   Overcast
7:35 AM 19.4 °F 11.5 °F 10.4 °F 68% 30.12 in 10.0 mi WNW 5.8 mph - N/A   Overcast
7:55 AM 19.4 °F 8.6 °F 10.4 °F 68% 30.13 in 10.0 mi WNW 9.2 mph - N/A   Overcast
8:15 AM 19.4 °F 8.6 °F 10.4 °F 68% 30.14 in 10.0 mi NW 9.2 mph - N/A   Overcast
8:35 AM 19.4 °F 7.2 °F 10.4 °F 68% 30.15 in 10.0 mi NW 11.5 mph - N/A   Overcast
8:55 AM 19.4 °F 5.0 °F 10.4 °F 68% 30.15 in 10.0 mi NNW 16.1 mph - N/A   Overcast
9:15 AM 19.4 °F 5.0 °F 10.4 °F 68% 30.16 in 10.0 mi NW 16.1 mph - N/A   Overcast
9:35 AM 19.4 °F 4.5 °F 10.4 °F 68% 30.17 in 10.0 mi NW 17.3 mph - N/A   Overcast
9:55 AM 21.2 °F 7.8 °F 10.4 °F 63% 30.18 in 10.0 mi NNW 15.0 mph - N/A   Mostly Cloudy
10:15 AM 21.2 °F 7.3 °F 8.6 °F 58% 30.19 in 10.0 mi NNW 16.1 mph - N/A   Overcast
10:35 AM 21.2 °F 7.3 °F 8.6 °F 58% 30.19 in 10.0 mi NNW 16.1 mph - N/A   Overcast
10:55 AM 21.2 °F 7.8 °F 10.4 °F 63% 30.21 in 9.0 mi NW 15.0 mph 20.7 mph N/A   Overcast
11:15 AM 21.2 °F 6.4 °F 10.4 °F 63% 30.21 in 7.0 mi NW 18.4 mph - N/A   Overcast
11:35 AM 21.2 °F 6.4 °F 10.4 °F 63% 30.22 in 4.0 mi NW 18.4 mph 24.2 mph N/A   Overcast
11:55 AM 21.2 °F 6.0 °F 8.6 °F 58% 30.21 in 9.0 mi NW 19.6 mph - N/A   Overcast
12:15 PM 21.2 °F 5.6 °F 8.6 °F 58% 30.22 in 8.0 mi NW 20.7 mph 27.6 mph N/A   Overcast
12:35 PM 21.2 °F 5.2 °F 6.8 °F 54% 30.21 in 10.0 mi NW 21.9 mph 27.6 mph N/A   Mostly Cloudy
12:55 PM 21.2 °F 4.2 °F 6.8 °F 54% 30.21 in 10.0 mi NW 25.3 mph 28.8 mph N/A   Scattered Clouds
1:15 PM 21.2 °F 4.2 °F 5.0 °F 50% 30.21 in 10.0 mi NW 25.3 mph 31.1 mph N/A   Clear
1:35 PM 19.4 °F 3.2 °F 5.0 °F 54% 30.22 in 10.0 mi NW 20.7 mph 31.1 mph N/A   Clear
1:55 PM 19.4 °F 0.8 °F 3.2 °F 49% 30.23 in 10.0 mi NW 28.8 mph 32.2 mph N/A   Partly Cloudy
2:15 PM 17.6 °F -0.6 °F 1.4 °F 49% 30.24 in 10.0 mi NW 25.3 mph 33.4 mph N/A   Partly Cloudy
2:35 PM 17.6 °F -1.3 °F 1.4 °F 49% 30.26 in 10.0 mi NW 27.6 mph 32.2 mph N/A   Partly Cloudy
2:55 PM 15.8 °F -3.1 °F -0.4 °F 49% 30.28 in 10.0 mi NW 25.3 mph 32.2 mph N/A   Partly Cloudy
3:15 PM 15.8 °F -4.1 °F -0.4 °F 49% 30.28 in 10.0 mi NW 28.8 mph 33.4 mph N/A   Scattered Clouds
3:35 PM 14.0 °F -6.2 °F -2.2 °F 49% 30.29 in 10.0 mi NW 27.6 mph 36.8 mph N/A   Scattered Clouds
3:55 PM 12.2 °F -8.6 °F -2.2 °F 53% 30.31 in 10.0 mi NW 27.6 mph 34.5 mph N/A   Scattered Clouds
4:15 PM 10.4 °F -11.4 °F -4.0 °F 52% 30.32 in 10.0 mi NW 28.8 mph 32.2 mph N/A   Mostly Cloudy
4:35 PM 10.4 °F -9.5 °F -4.0 °F 52% 30.33 in 10.0 mi NW 23.0 mph 28.8 mph N/A   Mostly Cloudy
4:55 PM 8.6 °F -13.1 °F -5.8 °F 52% 30.35 in 10.0 mi NW 26.5 mph 33.4 mph N/A   Scattered Clouds
5:15 PM 6.8 °F -14.3 °F -5.8 °F 56% 30.35 in 10.0 mi NW 23.0 mph 34.5 mph N/A   Clear
5:35 PM 6.8 °F -15.1 °F -5.8 °F 56% 30.37 in 10.0 mi NW 25.3 mph 33.4 mph N/A   Clear
5:55 PM 6.8 °F -15.5 °F -7.6 °F 52% 30.38 in 10.0 mi NW 26.5 mph 36.8 mph N/A   Clear
6:15 PM 5.0 °F -16.7 °F -9.4 °F 52% 30.40 in 10.0 mi NW 23.0 mph 28.8 mph N/A   Clear
6:35 PM 3.2 °F -19.0 °F -9.4 °F 56% 30.41 in 10.0 mi NNW 23.0 mph 28.8 mph N/A   Clear
6:55 PM 3.2 °F -19.0 °F -9.4 °F 56% 30.41 in 10.0 mi NNW 23.0 mph - N/A   Clear
7:15 PM 3.2 °F -19.9 °F -9.4 °F 56% 30.42 in 10.0 mi NNW 25.3 mph 29.9 mph N/A   Clear
7:35 PM 1.4 °F -19.9 °F -9.4 °F 61% 30.43 in 10.0 mi NNW 19.6 mph 26.5 mph N/A   Clear
7:55 PM 1.4 °F -19.9 °F -9.4 °F 61% 30.44 in 10.0 mi NNW 19.6 mph 25.3 mph N/A   Clear
8:15 PM 1.4 °F -19.4 °F -11.2 °F 56% 30.44 in 10.0 mi NNW 18.4 mph - N/A   Clear
8:35 PM 1.4 °F -19.4 °F -9.4 °F 61% 30.46 in 10.0 mi NNW 18.4 mph - N/A   Clear
8:55 PM 1.4 °F -18.8 °F -9.4 °F 61% 30.47 in 10.0 mi NNW 17.3 mph 21.9 mph N/A   Clear
9:15 PM -0.4 °F -21.2 °F -11.2 °F 60% 30.48 in 10.0 mi NNW 17.3 mph - N/A   Clear
9:35 PM -0.4 °F -19.2 °F -9.4 °F 66% 30.48 in 10.0 mi NNW 13.8 mph - N/A   Clear
9:55 PM -0.4 °F -20.5 °F -11.2 °F 60% 30.49 in 10.0 mi NNW 16.1 mph 19.6 mph N/A   Clear
10:15 PM -0.4 °F -19.9 °F -11.2 °F 60% 30.49 in 10.0 mi NNW 15.0 mph - N/A   Clear
10:35 PM -0.4 °F -19.2 °F -11.2 °F 60% 30.50 in 10.0 mi NNW 13.8 mph 20.7 mph N/A   Clear
10:55 PM -0.4 °F -19.9 °F -11.2 °F 60% 30.51 in 10.0 mi North 15.0 mph - N/A   Clear
11:15 PM -0.4 °F -20.5 °F -11.2 °F 60% 30.53 in 10.0 mi NNW 16.1 mph - N/A   Clear
11:35 PM -0.4 °F -19.2 °F -11.2 °F 60% 30.53 in 10.0 mi NNW 13.8 mph - N/A   Clear
11:55 PM -0.4 °F -18.4 °F -11.2 °F 60% 30.54 in 10.0 mi NNW 12.7 mph 18.4 mph N/A   Clear